Погода в Байгильдином

Россия / Чувашская Республика     55°31′49″N   47°20′30″E
темп.,
°C
ветер,
м/с
пор.,
м/с
влажн.,
%
обл.,
%
осадки,
мм/ч
давл.,
гПа
погр.,
м
18 апреля, вс
вс1800:00+4всв511800 0.0 1023233
03:00+3св39850 0.0 1023153
06:00+3всв38791 0.0 1023194
09:00+9всв57531 0.0 1022712
12:00+12всв56425 0.0 10221463
15:00+13всв67415 0.0 10221801
18:00+9всв9126846 0.0 1023673
21:00+5всв7137286 0.0 1025563
19 апреля, пн
пн1900:00+3всв61258100 0.0 1026485
03:00+1всв61267100 0.0 1027460
06:00+1всв71463100 0.0 1027622
09:00+4в91249100 0.0 1028944
12:00+6в101239100 0.0 10271386
15:00+7в91240100 0.0 10271547
18:00+6в71242100 0.0 1028997
21:00+3в7154377 0.0 1029546
20 апреля, вт
вт2000:00+1в7155025 0.0 1029432
03:000в6145867 0.0 1030352
06:00+1в613615 0.0 1030394
09:00+6вюв811420 0.0 1030954
12:00+8вюв810330 0.0 10301345
15:00+9вюв810301 0.0 10281475
18:00+7вюв7123892 0.0 1027632
21:00+5вюв71545100 0.0 1027506
21 апреля, ср
ср2100:00+4юв81746100 0.0 1026664
03:00+3юв81749100 0.0 1025710
06:00+3юв101949100 0.0 1023736
09:00+5юв101846100 0.0 1022821
12:00+3юв101969100 1.6 1022844
15:00+2юв112090100 4.9 1022794
18:00+2ююв91893100 1.9 1022724
21:00+2ююв81697100 3.4 1022635
22 апреля, чт
чт2200:00+3ююв71495100 0.2 1022572
03:00+3ю61196100 0.6 1023410
06:00+3ю4996100 0.0 1024318
09:00+6ю5791100 0.0 1025401
12:00+8ююз478575 0.3 1025507
15:00+13ююз585661 0.7 10241669
18:00+10ю5982100 0.5 1025374
21:00+8ю4794100 1.7 1026309